North Skunk River (Iowa), Sigourney (05472500)

StateIowaLatestUnknown (402 cfs)
RiverNorth Skunk RiverRatingObservedEstimated
Updated2026-05-10 7:30 (49 minutes ago)Flood - The river is flooding. Obstacles can be treacherous or deadly. The river should be avoided at this stage for casual trips and definitely for the inexperienced. Trips should be attempted only with protective gear and equipment.Flood(none)(none)
Discharge402 cfs (median: 557 cfs)High - The river is high and potentially dangerous, especially for the young and / or inexperienced. Normal stream obstacles are sometimes difficult to navigate. Extended distances can be attempted, but canoe travel may not be advisable.High(none)(none)
Height5.97 feetGood - Conditions are ideal for a canoe or kayak. Boats typically will drag on fewer than one-quarter of riffles, if at all, and portages are unnecessary or rare. Normal float lengths can be attempted without a problem.Good(none)(none)
TrendFalling (falling over 24 hours)Low - River is low but can still be floated. Some riffles are okay but most come with significant dragging and might need a portage. Float lengths should be reduced to accommodate low flow, dragging, and portages.Low(none)(none)
USGSExternal icon USGS Site (External icon Duck Duck Go Maps)Poor - River is too low to float comfortably. Most or all riffles will drag or must be portaged and some obstacles (such as slick shelf rock) cause undue problems. Avoid the river at this stage for casual paddling trips.Poor(none)(none)

Trending Data

Plot Image

Trips for North Skunk River (Iowa), Sigourney (05472500)

DateStartEndDistanceConditionDischargeHeightFishingDetails
Click for details2025-06-27 515th Ave Bridge 515th Ave Bridge Total trip distance: 0.0 miles0.0 High 2560 12.48 None NoneNone Turner, Caleb
Turner, Polly
Turner, Skip
Turner, Caleb; Turner, Polly; Turner, Skip
Water level too high to float safely, trip cancelled. Fast current with trees/brush in water on both sides. Banks not visible thru vegetation. Dumping could have high consequences. (Note: 515th access overgrown.)Water level too high to float safely, trip cancelled. Fast current with trees/brush in water on both sides. Banks not visible thru vegetation. Dumping could have high consequences. (Note: 515th access overgrown.) USGS Gauge Data:
Sigourney (05472500)
Discharge: 2560
Height: 12.48
<b>USGS Gauge Data:</b></br />Sigourney (05472500)<br />Discharge: 2560<br />Height: 12.48
Source: TurnerSource: Turner

A total of 1 rows are displayed.

Trip Summary for North Skunk River (Iowa), Sigourney (05472500)

Miles0
Trips1
People3
Dates1
Years1
Months1
Rows1
Sources1

Condition Descriptions

Fishing Conditions

Fish Species

Notes

Classic Trip List

The classic River Trips application is still available for use. It is updated with the new system using a data retrofit. It is no longer maintained. The original River Trips application is no longer updated (as of 1 Dec 2016) but can be checked for errors or for the condition of the data before it was converted to the new system.

Gauge Data Table

ObservationHeightDischargeMaximum
Discharge
Minimum
Discharge
Mean
Discharge
P05P10P20P25P50
(Median)
P75P80P90P95
2026-05-10 07:30 5.97 402 7880 (1996) 19 (1956) 896 54 88 210 236 557 955 1070 2040 3790
2026-05-10 06:30 5.98 404 7880 (1996) 19 (1956) 896 54 88 210 236 557 955 1070 2040 3790
2026-05-10 05:30 5.98 404 7880 (1996) 19 (1956) 896 54 88 210 236 557 955 1070 2040 3790
2026-05-10 04:30 5.99 406 7880 (1996) 19 (1956) 896 54 88 210 236 557 955 1070 2040 3790
2026-05-10 03:30 6.01 410 7880 (1996) 19 (1956) 896 54 88 210 236 557 955 1070 2040 3790
2026-05-10 02:30 6.00 408 7880 (1996) 19 (1956) 896 54 88 210 236 557 955 1070 2040 3790
2026-05-10 01:30 6.02 412 7880 (1996) 19 (1956) 896 54 88 210 236 557 955 1070 2040 3790
2026-05-10 00:30 6.05 418 7880 (1996) 19 (1956) 896 54 88 210 236 557 955 1070 2040 3790
2026-05-09 23:30 6.06 420 7880 (1996) 19 (1956) 896 54 88 210 236 557 955 1070 2040 3790
2026-05-09 22:30 6.05 418 6220 (2007) 8 (1957) 876 56 95 200 232 544 943 1110 2300 3500
2026-05-09 21:30 6.06 420 6220 (2007) 8 (1957) 876 56 95 200 232 544 943 1110 2300 3500
2026-05-09 20:30 6.07 422 6220 (2007) 8 (1957) 876 56 95 200 232 544 943 1110 2300 3500
2026-05-09 19:30 6.07 422 6220 (2007) 8 (1957) 876 56 95 200 232 544 943 1110 2300 3500
2026-05-09 18:30 6.08 425 6220 (2007) 8 (1957) 876 56 95 200 232 544 943 1110 2300 3500
2026-05-09 17:30 6.07 422 6220 (2007) 8 (1957) 876 56 95 200 232 544 943 1110 2300 3500
2026-05-09 16:30 6.07 422 6220 (2007) 8 (1957) 876 56 95 200 232 544 943 1110 2300 3500
2026-05-09 15:30 6.09 427 6220 (2007) 8 (1957) 876 56 95 200 232 544 943 1110 2300 3500
2026-05-09 14:30 6.09 427 6220 (2007) 8 (1957) 876 56 95 200 232 544 943 1110 2300 3500
2026-05-09 13:30 6.10 429 6220 (2007) 8 (1957) 876 56 95 200 232 544 943 1110 2300 3500
2026-05-09 12:30 6.10 429 6220 (2007) 8 (1957) 876 56 95 200 232 544 943 1110 2300 3500
2026-05-09 11:30 6.11 431 6220 (2007) 8 (1957) 876 56 95 200 232 544 943 1110 2300 3500
2026-05-09 10:30 6.11 431 6220 (2007) 8 (1957) 876 56 95 200 232 544 943 1110 2300 3500
2026-05-09 09:30 6.09 427 6220 (2007) 8 (1957) 876 56 95 200 232 544 943 1110 2300 3500
2026-05-09 08:30 6.10 429 6220 (2007) 8 (1957) 876 56 95 200 232 544 943 1110 2300 3500
2026-05-09 07:30 6.10 429 6220 (2007) 8 (1957) 876 56 95 200 232 544 943 1110 2300 3500
2026-05-09 06:30 6.13 435 6220 (2007) 8 (1957) 876 56 95 200 232 544 943 1110 2300 3500
2026-05-09 05:30 6.09 427 6220 (2007) 8 (1957) 876 56 95 200 232 544 943 1110 2300 3500
2026-05-09 04:30 6.09 427 6220 (2007) 8 (1957) 876 56 95 200 232 544 943 1110 2300 3500
2026-05-09 03:30 6.09 427 6220 (2007) 8 (1957) 876 56 95 200 232 544 943 1110 2300 3500
2026-05-09 02:30 6.09 427 6220 (2007) 8 (1957) 876 56 95 200 232 544 943 1110 2300 3500
2026-05-09 01:30 6.11 431 6220 (2007) 8 (1957) 876 56 95 200 232 544 943 1110 2300 3500
2026-05-09 00:30 6.11 431 6220 (2007) 8 (1957) 876 56 95 200 232 544 943 1110 2300 3500
2026-05-08 23:30 6.12 433 6220 (2007) 8 (1957) 876 56 95 200 232 544 943 1110 2300 3500
2026-05-08 22:30 6.12 433 4900 (2007) 7 (1957) 857 59 104 195 225 475 951 1090 2510 3580
2026-05-08 21:30 6.11 431 4900 (2007) 7 (1957) 857 59 104 195 225 475 951 1090 2510 3580
2026-05-08 20:30 6.11 431 4900 (2007) 7 (1957) 857 59 104 195 225 475 951 1090 2510 3580
2026-05-08 19:30 6.11 431 4900 (2007) 7 (1957) 857 59 104 195 225 475 951 1090 2510 3580
2026-05-08 18:30 6.11 431 4900 (2007) 7 (1957) 857 59 104 195 225 475 951 1090 2510 3580
2026-05-08 17:30 6.12 433 4900 (2007) 7 (1957) 857 59 104 195 225 475 951 1090 2510 3580
2026-05-08 16:30 6.12 433 4900 (2007) 7 (1957) 857 59 104 195 225 475 951 1090 2510 3580
2026-05-08 15:30 6.12 433 4900 (2007) 7 (1957) 857 59 104 195 225 475 951 1090 2510 3580
2026-05-08 14:30 6.13 435 4900 (2007) 7 (1957) 857 59 104 195 225 475 951 1090 2510 3580
2026-05-08 13:30 6.14 437 4900 (2007) 7 (1957) 857 59 104 195 225 475 951 1090 2510 3580
2026-05-08 12:30 6.14 437 4900 (2007) 7 (1957) 857 59 104 195 225 475 951 1090 2510 3580
2026-05-08 11:30 6.15 439 4900 (2007) 7 (1957) 857 59 104 195 225 475 951 1090 2510 3580
2026-05-08 10:30 6.15 439 4900 (2007) 7 (1957) 857 59 104 195 225 475 951 1090 2510 3580
2026-05-08 09:30 6.14 437 4900 (2007) 7 (1957) 857 59 104 195 225 475 951 1090 2510 3580
2026-05-08 08:30 6.13 435 4900 (2007) 7 (1957) 857 59 104 195 225 475 951 1090 2510 3580
2026-05-08 07:30 6.13 435 4900 (2007) 7 (1957) 857 59 104 195 225 475 951 1090 2510 3580
2026-05-08 06:30 6.14 437 4900 (2007) 7 (1957) 857 59 104 195 225 475 951 1090 2510 3580
2026-05-08 05:30 6.14 437 4900 (2007) 7 (1957) 857 59 104 195 225 475 951 1090 2510 3580
2026-05-08 04:30 6.17 444 4900 (2007) 7 (1957) 857 59 104 195 225 475 951 1090 2510 3580
2026-05-08 03:30 6.18 446 4900 (2007) 7 (1957) 857 59 104 195 225 475 951 1090 2510 3580
2026-05-08 02:30 6.18 446 4900 (2007) 7 (1957) 857 59 104 195 225 475 951 1090 2510 3580
2026-05-08 01:30 6.19 448 4900 (2007) 7 (1957) 857 59 104 195 225 475 951 1090 2510 3580
2026-05-08 00:30 6.19 448 4900 (2007) 7 (1957) 857 59 104 195 225 475 951 1090 2510 3580
2026-05-07 23:30 6.19 448 4900 (2007) 7 (1957) 857 59 104 195 225 475 951 1090 2510 3580
2026-05-07 22:30 6.18 446 4420 (1960) 8 (1957) 789 65 113 174 212 482 886 1100 1970 3500
2026-05-07 21:30 6.18 446 4420 (1960) 8 (1957) 789 65 113 174 212 482 886 1100 1970 3500
2026-05-07 20:30 6.18 446 4420 (1960) 8 (1957) 789 65 113 174 212 482 886 1100 1970 3500
2026-05-07 19:30 6.19 448 4420 (1960) 8 (1957) 789 65 113 174 212 482 886 1100 1970 3500
2026-05-07 18:30 6.19 448 4420 (1960) 8 (1957) 789 65 113 174 212 482 886 1100 1970 3500
2026-05-07 17:30 6.19 448 4420 (1960) 8 (1957) 789 65 113 174 212 482 886 1100 1970 3500
2026-05-07 16:30 6.19 448 4420 (1960) 8 (1957) 789 65 113 174 212 482 886 1100 1970 3500
2026-05-07 15:30 6.21 452 4420 (1960) 8 (1957) 789 65 113 174 212 482 886 1100 1970 3500
2026-05-07 14:30 6.20 450 4420 (1960) 8 (1957) 789 65 113 174 212 482 886 1100 1970 3500
2026-05-07 13:30 6.20 450 4420 (1960) 8 (1957) 789 65 113 174 212 482 886 1100 1970 3500
2026-05-07 12:30 6.21 452 4420 (1960) 8 (1957) 789 65 113 174 212 482 886 1100 1970 3500
2026-05-07 11:30 6.22 454 4420 (1960) 8 (1957) 789 65 113 174 212 482 886 1100 1970 3500
2026-05-07 10:30 6.25 461 4420 (1960) 8 (1957) 789 65 113 174 212 482 886 1100 1970 3500
2026-05-07 09:30 6.24 459 4420 (1960) 8 (1957) 789 65 113 174 212 482 886 1100 1970 3500
2026-05-07 08:30 6.24 459 4420 (1960) 8 (1957) 789 65 113 174 212 482 886 1100 1970 3500
2026-05-07 07:30 6.25 461 4420 (1960) 8 (1957) 789 65 113 174 212 482 886 1100 1970 3500
2026-05-07 06:30 6.26 463 4420 (1960) 8 (1957) 789 65 113 174 212 482 886 1100 1970 3500
2026-05-07 05:30 6.27 465 4420 (1960) 8 (1957) 789 65 113 174 212 482 886 1100 1970 3500
2026-05-07 04:30 6.27 465 4420 (1960) 8 (1957) 789 65 113 174 212 482 886 1100 1970 3500
2026-05-07 03:30 6.28 468 4420 (1960) 8 (1957) 789 65 113 174 212 482 886 1100 1970 3500
2026-05-07 02:30 6.29 470 4420 (1960) 8 (1957) 789 65 113 174 212 482 886 1100 1970 3500
2026-05-07 01:30 6.27 465 4420 (1960) 8 (1957) 789 65 113 174 212 482 886 1100 1970 3500
2026-05-07 00:30 6.28 468 4420 (1960) 8 (1957) 789 65 113 174 212 482 886 1100 1970 3500
2026-05-06 23:30 6.28 468 4420 (1960) 8 (1957) 789 65 113 174 212 482 886 1100 1970 3500

A total of 81 rows are displayed for years 1946 through 2025.